Roanoke Regional Woodrum Field
KROA : now visible

Airfield :











YOU CAN JOIN US ON...

 
LOGIN :

Register | Disclaimer

   EN    FR    IT 

 









Legend :    VFR   Marginal VFR   IFR   Intensive IFR   Very Intensive IFR
Visi :
Ceiling :
>= 8 km
>= 3000ft
5 to 8 km
1000 to 3000 ft
1500m to 5 km
500 to 1000 ft
800 to 1500m
200 to 500 ft
< 800m
< 200 ft
Symbols :   Thunderstorms  Fog  Heavy snow  Heavy precipitations  Wind > 20 kt







- Airport Elevation : 1175 ft
- IATA code : ROA


KROA - Roanoke Regional Woodrum Field

CURRENT METAR :
  • 162154Z 14008KT 10SM CLR 30/16 A3000 RMK AO2 SLP147 T03000161

EXPIRED METARs :
  • 162054Z 17007KT 10SM FEW060 FEW100 32/16 A3000 RMK AO2 SLP148 T03170156 56025
  • 161954Z 00000KT 10SM FEW070 32/15 A3003 RMK AO2 SLP155 T03220150

TAF KROA
Valid from the 16 at 18:00 until the 17 at 18:00 UTC


161744Z 1618/1718 VRB04KT P6SM SKC
FM171200 VRB02KT P6SM FEW060
FM171500 05005KT P6SM SCT025 BKN035
No reported NOTAMs for that airfield.



MET'MAP, your aeronautical weather chart ! - Copyright ORBIFLY December 2007 - Disclaimer

ORBIFLY MET'MAP TEAM :

Programming & Development : Alexandra Zaïnal
Concept & Development : Baudouin d'Aumeries
Co-Development & Prog : Marc-Olivier Méhu
Technical & hardware support : Manuel Goepfert

Contact : metmap@orbifly.com




SOURCES & CREDITS :

   NOAA       Earth
Advisory